#timestamp,LO_Frequency,Hit 
1499875215.4,286046961.1,N
1499875235.3,286046960.1,N
1499875255.1,286046958.4,N
1499875256.0,286046958.4,N
1499875275.8,286046958.8,N
1499875295.7,286046959.9,N
1499875315.5,286046956.6,N
1499875335.3,286046960.8,N
1499875355.2,286046960.7,N
1499875375.9,286046960.6,N
1499875395.7,286046960.7,N
1499875415.5,286046958.9,N
1499875435.4,286046957.1,N
1499875455.2,286046957.0,N
1499875475.0,286046956.8,N
1499875475.9,286046956.8,N
1499875495.8,286046956.7,N
1499875515.6,286046960.5,N
1499875535.4,286046961.0,N
1499875555.3,286046958.6,N
1499875575.1,286046960.4,N
1499875595.8,286046962.3,N
1499875615.7,286046961.2,N
1499875635.5,286046959.9,N
1499875655.3,286046959.7,N
1499875675.2,286046962.0,N
1499875695.9,286046959.9,N
1499875715.7,286046958.4,N
1499875735.6,286046958.1,N
1499875755.4,286046960.4,N
1499875775.2,286046961.3,N
1499875795.0,286046960.7,N
1499875796.0,286046960.7,N
1499875815.8,286046958.8,N
1499875835.6,286046959.6,N
1499875855.4,286046959.3,N
1499875875.3,286046959.3,N
1499875895.1,286046958.7,N
1499875915.8,286046957.0,N
1499875935.7,286046959.3,N
1499875955.5,286046960.6,N
1499875975.3,286046958.9,N
1499875995.2,286046959.1,N
1499876015.9,286046958.9,N
1499876035.7,286046956.9,N
1499876055.6,286046959.5,N
1499876075.4,286046961.2,N
1499876095.2,286046960.9,N
1499876115.0,286046958.6,N
1499876115.9,286046958.6,N
1499876135.8,286046958.3,N
1499876155.6,286046958.8,N
1499876175.4,286046958.2,N
1499876195.3,286046959.9,N
1499876215.1,286046960.4,N
1499876235.8,286046960.5,N
1499876255.7,286046961.0,N
1499876275.5,286046959.0,N
1499876295.3,286046956.5,N
1499876315.2,286046961.0,N
1499876335.9,286046960.7,N
1499876355.7,286046959.0,N
1499876375.6,286046958.7,N
1499876395.4,286046960.6,N
1499876415.2,286046960.6,N
1499876435.0,286046960.4,N
1499876435.9,286046960.4,N
1499876455.8,286046960.4,N
1499876475.6,286046958.2,N
1499876495.4,286046959.0,N
1499876515.3,286046959.2,N
1499876535.1,286046956.6,N
1499876555.8,286046959.6,N
1499876575.7,286046959.6,N
1499876595.5,286046957.4,N
1499876615.3,286046959.6,N
1499876635.2,286046959.6,N
1499876655.9,286046958.9,N
1499876675.7,286046959.0,N
1499876695.6,286046961.2,N
1499876715.4,286046960.3,N
1499876735.2,286046962.3,N
1499876755.0,286046962.6,N
1499876756.0,286046962.6,N
1499876775.8,286046961.5,N
1499876795.6,286046958.9,N
1499876815.4,286046957.1,N
1499876835.3,286046959.0,N
1499876855.1,286046959.3,N
1499876875.8,286046957.4,N
1499876895.7,286046957.2,N
1499876915.5,286046958.1,N
1499876935.3,286046958.1,N
1499876955.2,286046958.9,N
1499876975.9,286046960.4,N
1499876995.7,286046960.6,N
1499877015.6,286046962.4,N
1499877035.4,286046962.2,N
1499877055.2,286046959.7,N
1499877075.1,286046959.9,N
1499877076.0,286046959.9,N
1499877095.8,286046962.8,N
1499877115.6,286046962.5,N
1499877135.4,286046962.7,N
1499877155.3,286046959.9,N
1499877175.1,286046960.5,N
1499877195.8,286046960.9,N
1499877215.7,286046959.7,N
1499877235.5,286046960.0,N
1499877255.3,286046960.5,N
1499877275.2,286046959.9,N
1499877295.9,286046962.5,N
1499877315.7,286046963.8,N
1499877335.6,286046963.6,N
1499877355.4,286046978.2,N
1499877375.2,286046972.7,N
1499877395.1,286046968.9,N
1499877396.0,286046968.9,N
1499877415.8,286046967.1,N
1499877435.6,286046968.8,N
1499877455.5,286046966.1,N
1499877475.3,286046968.3,N
1499877495.1,286046972.1,N
1499877515.9,286046966.2,N
1499877535.7,286046964.7,N
1499877555.5,286046967.3,N
1499877575.3,286046967.1,N
1499877595.2,286046964.7,N
1499877615.0,286046965.9,N
1499877615.9,286046965.9,N
1499877635.7,286046964.7,N
1499877655.6,286046965.3,N
1499877675.4,286046967.1,N
1499877695.2,286046967.1,N
1499877715.1,286046965.2,N
1499877716.0,286046965.2,N
1499877735.8,286046968.9,N
1499877755.6,286046963.3,N
1499877775.5,286046965.4,N
1499877795.3,286046969.2,N
1499877815.1,286046967.3,N
1499877835.9,286046965.5,N
1499877855.7,286046966.6,N
1499877875.5,286046964.5,N
1499877895.4,286046965.7,N
1499877915.2,286046963.9,N
1499877935.0,286046960.7,N
1499877935.9,286046960.7,N
1499877955.8,286046959.3,N
1499877975.6,286046958.0,N
1499877995.4,286046956.8,N
1499878015.2,286046959.5,N
1499878035.1,286046956.7,N
1499878036.0,286046956.7,N
1499878055.8,286046958.0,N
1499878075.6,286046956.1,N
1499878095.5,286046956.3,N
1499878115.3,286046953.9,N
1499878135.1,286046951.4,N
1499878155.9,286046949.4,N
1499878175.7,286046949.2,N
1499878195.5,286046947.3,N
1499878215.4,286046947.3,N
1499878235.2,286046947.8,N
1499878255.0,286046946.2,N
1499878255.9,286046946.2,N
1499878275.8,286046946.2,N
1499878295.6,286046946.0,N
1499878315.4,286046945.2,N
1499878335.3,286046942.2,N
1499878355.1,286046943.0,N
1499878356.0,286046943.0,N
1499878375.8,286046939.1,N
1499878395.7,286046939.4,N
1499878415.5,286046939.8,N
1499878435.3,286046939.8,N
1499878455.1,286046939.6,N
1499878475.9,286046940.1,N
1499878495.7,286046939.6,N
1499878515.5,286046935.8,N
1499878535.4,286046936.3,N
1499878555.2,286046936.0,N
1499878575.0,286046938.8,N
1499878575.9,286046938.8,N
1499878595.8,286046935.8,N
1499878615.6,286046938.3,N
1499878635.4,286046934.1,N
1499878655.3,286046936.7,N
1499878675.1,286046934.7,N
1499878695.8,286046936.9,N
1499878715.7,286046938.4,N
1499878735.5,286046938.0,N
1499878755.3,286046938.4,N
1499878775.2,286046939.7,N
1499878795.9,286046940.6,N
